GFSSGP_sfc_wetblb_159.txt.gz
Wetbulb
67.43 65.88 65.55 64.34 57.07 57.01 51.80 51.50 55.75 53.97 54.92 58.26 59.12 57.91 56.57 57.81 55.91 54.08 68.39 69.27 69.81 70.58 70.81 71.53 71.60 71.48 70.46 69.66 68.42 68.50 68.20 68.89 69.74 69.23 68.77 68.25 67.44 66.82 66.11 66.63 65.90 65.25 64.62 64.73 66.56 66.29 67.90 67.12 67.83
65.81 64.43 64.57 61.82 54.61 51.12 50.93 54.89 53.77 55.69 57.85 59.47 59.17 59.42 57.27 56.13 61.96 64.48 66.69 69.20 70.15 70.80 70.63 71.09 70.63 71.35 70.35 69.24 68.44 67.98 67.80 68.18 68.09 67.70 68.32 68.17 66.90 65.75 65.37 65.34 64.64 65.64 65.44 66.12 65.60 65.80 66.84 67.98 67.95
65.66 64.18 61.18 58.28 54.34 51.02 50.99 54.71 55.67 57.31 58.44 58.37 57.88 60.40 58.28 57.57 62.79 64.85 68.90 69.76 70.31 70.56 70.50 70.16 70.18 70.89 69.95 68.90 68.39 68.06 67.75 67.84 67.47 67.85 68.55 67.52 66.81 66.06 65.13 64.57 64.12 64.19 64.60 65.15 64.26 65.40 65.73 67.28 67.44
63.80 63.85 61.66 55.21 51.65 53.38 54.68 56.10 56.74 56.78 58.36 59.45 59.03 56.37 62.02 65.40 63.81 67.06 69.46 70.05 69.74 70.34 70.32 68.92 69.97 70.26 69.28 68.50 68.03 68.05 67.49 67.29 66.70 68.70 68.75 67.55 67.05 66.37 65.17 64.38 64.00 63.56 63.90 63.79 63.86 65.04 65.12 65.85 66.70
65.51 61.55 55.89 53.18 51.96 54.08 57.05 57.62 57.82 56.34 57.45 58.35 58.97 56.31 59.10 64.94 67.23 68.37 69.23 69.57 69.26 70.07 69.81 70.21 69.77 70.08 69.16 68.14 67.91 67.84 67.34 67.27 67.61 67.45 67.26 68.61 67.63 66.87 65.33 64.87 64.25 63.35 63.08 62.99 63.36 64.54 64.21 64.74 65.75
60.70 60.33 52.94 50.62 51.98 54.46 57.37 58.53 57.87 57.11 57.82 58.15 57.93 57.50 59.63 66.20 66.33 67.76 69.34 69.55 69.94 69.67 69.82 69.75 67.38 68.48 68.95 68.79 68.48 68.02 68.08 67.64 66.82 66.68 66.34 68.52 68.04 67.51 66.83 65.79 64.35 63.58 63.18 63.05 63.49 63.49 63.46 63.72 63.72
58.29 56.49 53.14 52.74 52.10 53.00 55.67 59.16 57.37 57.36 57.33 57.72 60.09 56.13 60.82 64.38 67.13 68.34 69.11 69.80 70.00 69.80 69.12 69.44 69.43 67.78 66.35 67.42 67.51 67.81 68.04 68.03 67.76 67.15 66.96 68.91 68.13 67.76 67.49 67.28 66.22 64.24 64.93 63.89 63.59 62.96 62.59 62.79 63.17
58.86 57.42 52.18 53.19 51.64 51.82 55.70 57.90 58.01 58.01 57.47 61.43 61.82 56.07 57.89 64.16 67.35 68.39 68.77 68.92 69.21 68.88 69.01 68.84 68.93 68.95 68.33 67.63 64.81 65.55 66.23 66.35 66.17 66.27 65.87 65.29 66.28 66.51 65.84 64.68 65.41 66.07 65.29 64.81 64.37 63.48 62.37 61.98 62.37
60.05 54.13 51.59 51.81 51.97 53.52 56.12 55.51 58.05 59.90 58.91 59.48 60.62 60.81 63.06 65.79 67.39 67.05 66.92 67.30 67.21 66.72 67.46 68.67 68.38 68.65 68.64 68.47 66.29 63.56 64.02 64.71 64.61 64.65 62.80 62.67 67.07 66.59 64.89 63.16 64.23 65.59 65.81 66.03 65.27 64.41 63.57 63.08 62.39
55.39 53.12 53.15 55.55 55.37 54.15 55.07 55.66 56.42 56.87 57.38 57.91 59.44 62.74 63.93 65.26 65.76 64.99 64.78 64.92 65.92 66.48 66.54 67.38 68.97 68.36 68.20 68.09 68.04 66.68 65.92 66.01 65.93 65.60 65.64 64.65 64.82 65.42 64.71 61.98 62.16 63.52 63.28 64.71 65.89 65.08 64.03 62.14 61.36
54.50 50.63 55.47 54.92 54.69 54.61 54.23 54.50 56.10 55.66 54.62 57.14 56.56 59.15 61.32 62.33 63.79 64.31 64.91 65.39 65.86 67.03 67.67 67.86 67.32 68.97 68.78 67.76 68.07 67.34 66.80 66.55 66.45 66.48 66.15 65.63 64.68 64.90 64.55 64.45 63.68 63.66 60.04 63.26 64.31 64.29 63.52 63.28 62.71
50.84 53.75 54.28 54.43 53.45 53.26 53.10 55.18 54.01 54.95 55.87 57.17 58.57 57.86 58.55 58.81 60.81 62.16 63.07 64.39 65.69 66.68 67.39 68.25 68.33 67.19 68.00 68.66 68.08 67.88 66.60 66.95 66.63 66.69 66.41 66.14 65.23 64.98 64.45 64.33 64.19 65.13 64.34 63.93 64.60 64.36 64.21 63.07 62.71
52.27 53.15 54.37 54.55 54.04 54.05 54.43 53.68 54.47 54.81 57.56 57.76 57.86 57.15 58.01 58.66 59.86 61.67 63.22 64.27 65.13 65.16 66.44 67.55 68.65 68.32 67.26 67.30 68.30 68.11 67.67 67.06 67.24 66.89 66.79 66.28 65.44 65.25 64.46 64.24 63.61 63.80 63.67 63.34 63.56 63.55 63.02 62.83 62.21
53.94 53.85 54.01 54.61 54.62 54.73 52.69 53.97 54.01 55.70 58.24 57.24 56.90 57.55 58.32 57.78 58.59 59.57 61.21 62.38 63.29 64.29 65.11 66.38 67.23 68.40 68.42 66.45 66.72 68.08 68.25 68.04 68.05 67.77 67.30 66.45 65.82 65.47 64.72 64.30 63.60 63.33 63.38 63.27 62.96 62.59 62.44 62.37 62.32
53.79 50.38 52.46 53.22 53.87 53.24 54.22 50.70 51.67 56.12 57.18 56.17 56.71 57.52 57.87 58.08 58.94 58.90 60.29 60.58 61.53 62.19 63.02 63.69 65.47 67.05 67.70 67.91 66.51 66.13 68.50 67.93 67.99 68.00 67.69 66.77 66.23 65.37 64.76 64.61 64.34 63.94 63.94 63.64 63.20 62.48 62.19 61.77 61.71
50.22 50.11 44.99 51.07 52.64 53.48 52.55 45.03 51.85 55.67 55.47 54.86 55.88 56.78 57.36 58.05 58.83 59.96 60.66 60.84 61.36 61.34 60.93 61.56 62.59 64.77 65.90 67.00 68.24 67.22 66.48 67.22 66.82 67.15 67.92 67.72 66.18 66.15 65.36 65.01 64.53 64.79 64.53 63.71 62.90 62.21 61.30 61.15 60.93
48.01 42.37 44.51 46.25 52.31 51.59 50.52 46.26 51.32 54.73 54.71 53.97 54.83 55.74 56.24 56.91 57.89 58.86 59.32 59.59 60.06 60.64 60.35 60.10 61.01 61.93 64.48 66.09 67.19 68.03 68.19 67.70 65.81 65.65 66.29 67.37 66.52 65.84 65.66 65.28 65.14 64.86 63.96 63.58 63.16 62.43 61.64 60.62 60.72
41.54 42.75 44.41 44.36 48.97 49.70 48.08 47.54 50.64 53.29 53.27 53.14 53.81 54.35 54.87 55.32 56.15 57.99 58.88 59.77 59.40 59.39 59.60 59.72 60.14 60.79 62.78 65.06 66.23 67.04 67.89 68.04 66.81 64.93 64.69 65.54 67.09 66.35 65.23 65.36 64.73 64.09 63.68 62.90 62.90 62.75 62.80 61.76 61.10
45.30 43.54 43.31 46.29 49.15 46.46 46.11 46.55 48.46 51.03 51.40 51.24 52.45 53.22 53.67 54.32 56.62 58.08 58.17 57.93 57.42 57.35 57.34 57.74 57.95 59.11 60.66 63.04 64.00 64.79 65.34 66.58 65.36 65.13 64.67 64.34 65.54 66.24 65.10 64.28 64.12 63.96 62.91 62.99 63.52 62.21 61.25 60.98 61.67
44.87 42.78 42.22 45.49 47.64 46.01 45.27 44.58 48.01 49.73 50.47 51.73 52.11 52.73 53.56 54.35 55.03 55.35 56.06 54.96 54.90 54.84 55.57 56.24 57.09 58.16 58.99 60.96 63.43 64.36 64.86 65.88 65.47 64.63 64.40 64.36 64.21 64.64 64.33 64.03 63.42 63.50 62.58 62.09 61.88 61.31 60.04 59.79 60.96
43.49 41.66 41.62 41.88 45.80 47.41 45.29 43.13 45.20 48.88 50.82 51.63 52.39 53.20 53.33 52.78 52.83 53.60 52.73 52.57 52.95 52.91 53.44 54.65 57.04 57.20 58.22 60.56 62.59 63.57 64.28 64.72 64.16 64.98 64.88 63.58 63.79 63.98 63.90 63.69 63.33 62.87 62.74 61.66 61.23 61.01 60.00 57.92 59.35
39.87 45.81 44.32 42.94 41.23 37.12 44.30 34.79 43.20 46.03 46.65 48.32 49.52 50.64 51.42 52.36 52.65 50.86 50.47 50.40 50.24 50.88 52.86 54.42 55.83 58.13 60.58 61.07 61.61 61.83 61.57 61.04 62.89 63.70 64.29 63.57 64.12 63.66 63.70 63.32 63.05 62.76 62.52 61.89 61.38 61.30 61.02 60.05 57.99
41.41 46.13 44.62 43.70 41.28 39.97 40.20 36.55 40.67 44.87 43.07 45.02 47.79 49.64 50.95 50.72 49.68 48.92 48.27 47.98 48.08 49.24 50.35 52.39 53.63 53.07 54.80 55.13 60.51 61.72 61.10 62.13 62.53 62.15 62.07 62.16 62.52 63.06 62.25 62.34 63.08 62.43 62.33 62.07 61.69 61.07 60.32 60.33 59.06
46.43 43.30 42.49 42.13 40.11 31.72 37.21 36.68 37.49 41.52 43.64 45.93 47.96 48.31 48.03 48.17 48.13 47.44 46.96 47.02 46.59 47.57 48.02 48.89 49.34 49.21 48.96 49.86 51.28 51.83 51.17 51.26 52.40 52.75 53.04 53.96 53.77 52.67 51.75 54.14 55.52 59.17 61.18 61.04 61.10 61.01 60.51 59.82 59.08
43.58 39.17 31.29 28.84 30.16 29.02 38.40 35.87 38.34 44.04 46.21 47.17 47.17 47.90 46.40 46.40 46.55 45.81 44.86 44.11 43.97 44.33 45.28 45.83 46.15 45.57 46.67 46.64 46.80 48.29 48.34 47.81 46.66 48.25 48.36 48.61 48.65 47.60 47.21 49.40 51.04 52.76 54.20 54.85 57.03 59.20 60.47 60.32 59.30
40.24 39.31 31.12 23.78 26.89 31.31 38.26 32.46 38.49 46.33 48.35 47.99 46.81 47.83 45.97 45.17 44.71 43.61 42.82 42.35 41.83 42.04 42.93 43.40 43.35 43.20 43.88 44.41 44.39 45.03 45.73 44.91 44.25 43.80 44.58 43.84 43.73 44.01 45.35 45.61 47.01 47.81 48.43 49.22 50.48 52.96 55.24 55.16 57.90
39.15 35.54 41.56 34.21 34.56 30.82 35.66 38.92 43.73 45.69 43.97 44.22 44.75 45.02 45.01 44.77 43.19 42.19 41.62 41.20 40.36 40.07 40.19 41.12 41.17 41.35 41.02 41.60 42.08 41.39 40.73 40.68 40.08 40.30 40.77 40.83 40.96 41.21 42.16 42.94 43.73 44.48 44.82 45.03 45.45 47.40 47.77 49.38 51.42
41.32 43.35 34.07 33.80 26.71 25.42 31.82 34.06 36.42 41.40 42.64 44.33 42.92 43.71 44.62 43.45 41.93 41.08 40.57 39.48 39.00 38.88 39.08 39.50 39.83 39.29 38.86 39.14 39.78 38.57 37.49 37.79 37.94 37.64 36.76 37.14 37.85 38.24 38.59 39.29 40.87 41.66 41.94 42.40 42.98 44.48 45.87 43.92 44.12
38.31 36.56 37.93 37.81 34.81 27.38 26.78 32.76 43.59 42.77 44.43 43.46 44.01 44.29 43.98 41.97 41.23 40.39 39.94 38.90 37.73 37.77 37.73 37.49 37.53 37.90 36.58 36.86 37.26 35.61 35.25 35.52 35.49 34.77 34.62 34.87 35.60 35.64 35.80 37.13 38.14 38.38 38.40 39.20 40.19 39.38 39.88 39.81 40.62
42.09 38.31 38.56 32.43 30.94 33.66 32.26 33.00 43.91 44.25 45.48 46.22 45.32 44.28 43.73 42.54 41.28 40.27 39.37 39.04 37.00 36.20 36.01 35.44 35.62 35.95 34.72 35.17 34.76 33.42 33.40 33.56 33.00 32.59 32.48 33.16 33.01 33.97 34.27 34.78 35.07 35.22 35.31 36.86 35.54 35.35 36.06 36.09 36.72

GFSSGP_sfc_wetblb_162.txt.gz
Wetbulb
66.89 65.27 63.78 61.96 53.71 53.96 48.77 49.33 53.72 52.85 52.73 56.15 57.00 55.23 53.30 55.10 54.86 53.18 65.85 67.44 69.51 69.37 70.21 71.03 71.43 71.92 71.06 70.01 69.37 69.47 69.29 70.09 69.70 69.57 69.24 68.41 67.65 66.71 66.55 66.13 66.25 65.61 65.14 66.93 66.87 67.86 68.34 67.99 66.56
65.61 65.10 61.91 59.45 51.10 47.73 47.28 52.58 51.64 53.44 55.49 56.52 57.04 56.54 54.07 53.17 60.97 62.97 64.08 68.09 69.62 69.89 70.09 70.14 70.63 71.30 70.78 69.43 68.90 69.09 69.04 70.00 69.29 68.66 68.64 68.15 67.18 66.32 65.15 65.36 65.85 66.10 65.90 66.21 66.62 66.81 67.28 68.03 67.02
66.07 64.43 57.40 54.69 50.83 47.77 47.67 52.69 52.80 54.97 56.32 56.30 55.36 56.53 55.12 56.00 60.27 63.11 66.80 68.15 69.09 69.15 70.32 69.74 70.40 71.11 69.93 68.90 68.60 68.61 69.00 69.26 67.94 68.61 68.52 67.84 67.27 66.12 65.69 64.99 64.58 64.58 65.30 65.84 65.41 66.14 65.97 67.78 66.61
62.39 61.18 58.94 51.18 48.63 51.66 51.99 53.20 54.94 54.67 56.44 56.84 56.37 54.86 59.62 62.56 61.62 65.57 67.88 68.32 67.90 69.26 69.84 69.20 70.35 70.68 69.56 68.68 68.27 68.10 67.81 67.31 67.17 68.98 68.46 67.56 67.29 66.89 66.33 66.09 64.64 63.81 63.54 63.59 63.88 65.32 65.25 66.06 66.07
62.77 59.23 52.52 50.30 49.92 52.78 54.39 55.34 55.39 54.57 54.70 55.39 55.88 54.71 57.21 62.44 65.25 66.58 66.87 67.79 67.39 68.47 69.15 68.62 69.65 70.06 69.45 68.35 68.23 68.17 68.03 67.58 68.29 69.07 68.42 67.71 67.24 67.40 67.04 66.12 64.93 63.73 63.05 62.87 62.82 64.26 64.09 64.73 65.74
57.68 57.13 49.60 47.33 49.62 53.65 55.08 55.83 54.57 55.01 55.40 54.60 54.56 55.74 57.11 63.37 64.04 65.50 66.85 66.40 67.84 68.38 69.15 68.77 67.33 68.31 68.72 68.59 68.54 68.58 68.33 68.23 67.84 67.85 67.33 68.75 68.27 67.82 67.12 66.08 65.54 63.97 63.19 63.24 63.40 63.08 62.95 63.20 63.43
55.35 53.76 50.31 50.39 49.61 51.47 54.37 56.38 54.26 54.66 54.63 54.91 57.14 53.72 58.30 61.96 64.56 65.86 66.06 66.88 67.11 68.57 68.68 68.76 68.14 67.30 65.87 67.07 67.08 67.54 68.18 68.00 67.79 67.50 67.29 68.30 68.19 68.04 67.81 67.16 66.47 64.77 64.31 64.53 63.86 63.02 62.13 62.07 62.81
56.23 54.14 49.83 49.24 49.07 49.31 54.22 55.39 55.40 55.65 54.32 58.22 58.13 53.16 54.10 61.42 65.20 65.68 65.64 66.14 66.44 67.02 67.90 67.67 68.03 67.44 66.22 65.92 64.82 65.27 65.70 66.49 65.86 65.82 65.22 65.73 66.09 66.28 65.89 65.08 65.52 66.13 65.53 65.22 64.65 64.18 62.84 62.02 62.10
58.06 50.33 48.15 49.68 49.96 51.20 54.06 53.56 55.33 56.49 55.53 56.83 58.14 58.14 60.68 64.23 65.30 64.13 63.30 64.17 65.01 65.52 65.79 67.16 67.23 67.29 66.87 66.61 64.90 63.30 63.86 64.20 64.18 63.57 62.84 61.79 64.91 65.09 63.91 62.67 64.11 65.99 66.29 66.39 66.05 65.19 64.17 63.18 62.27
51.90 48.67 51.02 53.79 52.70 51.80 53.52 53.21 54.31 53.82 54.58 54.69 57.11 60.01 62.14 63.37 63.23 62.28 61.82 61.83 63.27 63.65 64.64 65.68 66.21 66.07 66.64 66.92 64.98 63.89 64.30 63.45 63.61 62.87 62.95 61.74 61.93 64.31 64.36 61.36 61.45 63.81 63.74 65.18 66.28 65.81 64.18 61.88 59.08
51.83 47.15 53.44 53.38 52.61 53.09 53.08 51.76 53.35 52.03 50.60 54.22 55.17 57.25 59.53 61.08 61.62 61.66 61.71 61.79 62.68 64.29 65.31 65.62 65.66 66.18 65.38 64.72 65.26 65.48 64.75 62.68 63.06 62.90 62.58 62.43 61.75 61.07 60.51 60.40 59.92 59.66 58.84 60.03 61.63 63.16 62.36 60.44 59.73
48.72 51.91 52.62 53.93 52.62 52.41 51.16 53.15 50.94 50.80 51.05 54.87 55.47 55.85 57.19 57.57 58.30 59.75 60.14 61.48 62.56 63.20 64.36 65.58 65.76 65.37 65.61 65.55 64.80 64.60 63.83 64.63 63.63 63.30 63.65 62.46 61.48 60.58 60.38 60.17 60.26 60.15 59.98 59.22 59.46 60.83 61.15 60.62 60.75
50.50 51.61 52.92 53.35 52.12 51.13 53.26 50.63 51.21 50.64 53.22 54.68 55.57 55.36 54.16 54.67 56.18 56.91 58.39 59.13 59.71 60.21 62.77 64.38 65.46 65.56 65.27 64.90 65.46 64.88 64.13 63.80 64.19 64.30 63.94 63.21 61.91 61.01 60.69 60.24 60.13 59.81 60.38 59.70 59.45 60.05 60.61 60.12 59.84
52.07 52.17 51.76 52.72 52.42 52.66 51.00 50.75 51.68 52.21 55.17 54.44 54.86 54.10 54.66 55.51 54.77 54.57 56.53 58.44 60.32 61.74 61.81 62.86 64.15 65.34 65.88 64.98 64.63 65.06 64.74 64.65 64.52 63.91 64.57 64.41 62.66 61.63 61.30 60.74 60.14 59.39 59.38 59.33 59.02 58.83 58.64 58.44 58.72
52.31 48.03 50.16 50.37 51.35 50.76 51.96 48.00 48.69 52.95 54.10 52.88 53.14 53.34 54.37 54.94 55.05 55.05 56.22 56.64 57.24 58.55 59.38 60.10 61.97 63.52 64.57 65.11 64.75 65.00 65.36 65.38 64.40 64.62 64.59 63.87 64.58 62.53 61.47 60.96 60.47 60.06 59.86 59.52 59.13 58.67 58.22 57.71 58.33
47.74 46.97 41.50 48.13 50.20 50.81 49.77 41.57 49.11 52.82 52.62 51.78 52.34 51.95 53.24 54.34 55.55 55.92 56.86 57.01 57.27 57.29 57.61 57.93 58.69 60.38 61.88 63.28 65.30 64.89 64.75 65.11 64.82 64.60 64.71 64.66 64.45 64.43 63.56 61.33 60.85 61.25 60.53 59.81 58.92 58.45 57.66 57.03 56.93
45.36 38.39 41.04 43.60 49.12 49.38 48.05 42.73 49.13 51.21 50.38 50.06 50.40 51.09 51.78 52.23 53.67 54.82 55.77 55.77 55.22 55.11 55.52 55.66 56.66 56.71 58.11 61.95 62.54 64.50 64.84 64.23 64.90 65.07 64.70 64.40 65.69 65.00 64.04 63.27 63.08 62.99 62.35 61.73 61.08 59.23 58.14 56.82 56.61
38.55 39.60 41.66 40.85 45.02 46.54 45.06 44.56 47.99 49.85 49.62 48.52 49.09 49.87 50.44 51.04 52.04 53.70 54.99 54.35 54.41 53.86 53.95 54.24 55.49 56.10 56.67 58.49 61.64 62.11 63.32 65.06 65.35 64.36 64.65 64.90 64.24 65.19 64.16 63.82 63.54 63.16 62.03 61.64 61.34 60.63 60.23 58.19 57.22
42.94 40.70 39.39 42.68 46.70 45.01 43.75 43.86 45.99 48.01 47.53 47.79 48.86 48.79 49.38 50.41 52.33 53.33 53.02 51.92 51.90 51.94 52.22 52.99 53.34 54.08 54.54 54.92 58.36 59.87 60.60 62.10 63.51 64.72 64.16 64.13 64.35 64.60 64.07 63.87 63.36 62.73 61.77 61.75 61.51 60.79 60.11 59.98 60.18
43.33 40.64 39.58 42.96 45.37 43.39 41.87 41.87 45.43 46.86 47.12 47.74 47.35 47.58 48.55 49.84 51.22 51.93 50.31 49.94 49.76 50.24 50.72 51.71 53.08 54.42 54.33 54.44 56.44 60.06 60.87 62.08 62.83 63.04 63.47 63.92 63.76 63.99 63.93 63.38 62.97 62.69 61.92 61.54 61.36 60.75 59.77 59.36 59.85
41.14 40.01 39.84 39.71 42.83 44.02 41.45 40.13 43.05 46.75 48.31 49.00 49.14 49.52 49.90 49.94 50.04 47.57 48.27 47.77 47.72 47.76 48.82 51.11 52.87 54.26 56.33 55.96 56.25 58.43 60.06 60.44 61.51 62.66 62.64 63.54 63.78 63.63 63.39 63.39 62.82 62.45 62.06 61.46 61.01 60.54 59.51 58.38 58.74
37.59 43.49 42.61 40.96 38.38 33.27 40.48 29.23 38.79 41.91 42.32 45.80 47.62 48.62 48.71 49.09 47.75 47.66 47.10 45.72 45.51 46.10 48.03 49.71 51.35 50.73 52.57 53.07 57.01 57.42 57.97 58.10 59.49 61.19 61.91 62.83 63.06 62.91 62.84 62.79 62.75 62.12 61.96 61.36 61.20 61.00 60.35 59.73 57.99
40.33 43.97 42.83 40.87 37.71 36.72 37.40 32.38 35.36 41.06 39.74 41.97 43.95 45.83 47.01 46.14 46.75 45.62 44.81 45.38 44.83 45.12 45.11 46.31 47.71 47.05 47.63 49.79 51.51 52.66 54.59 55.14 54.57 55.27 55.10 54.66 53.35 51.25 52.55 54.74 56.26 58.87 61.45 61.49 61.23 60.66 60.07 60.20 59.31
45.11 42.37 41.52 39.77 37.35 30.93 35.24 34.05 32.07 36.95 39.75 41.54 43.33 44.98 45.25 45.16 44.95 43.81 44.19 44.34 42.70 42.92 43.05 43.65 44.11 44.28 45.67 46.88 48.44 48.19 47.10 48.13 48.82 48.47 49.44 49.98 48.04 47.23 47.36 48.83 50.82 52.09 52.61 53.72 55.16 58.40 59.54 59.27 59.02
42.25 39.03 29.85 25.50 25.33 24.08 35.04 33.50 34.77 39.73 42.13 42.39 43.92 43.40 43.60 44.14 43.65 42.91 41.77 39.98 40.22 40.06 40.65 41.85 41.46 40.91 43.51 44.20 43.61 44.81 44.64 43.96 43.05 44.44 43.60 43.56 43.29 43.19 43.39 44.71 45.90 45.88 46.55 46.94 46.96 51.07 52.10 50.63 52.35
38.24 37.74 28.09 21.20 23.27 24.81 33.68 27.39 33.16 42.01 43.98 45.14 45.35 44.48 43.18 42.86 42.73 41.51 40.06 39.14 38.81 39.36 39.26 39.05 39.06 38.42 39.53 39.70 39.54 39.96 40.66 40.35 39.99 39.86 39.55 38.97 38.81 39.37 40.06 40.80 41.98 42.36 42.42 42.36 44.40 45.30 45.47 46.53 44.63
37.64 34.83 39.02 30.77 27.30 25.33 29.87 34.23 39.78 41.95 41.29 41.49 41.75 42.22 41.30 41.83 40.49 39.15 38.82 37.57 37.07 36.67 37.17 37.57 37.69 36.83 37.35 37.71 36.48 35.53 35.90 36.00 35.50 35.51 36.02 36.13 36.08 37.45 37.10 38.43 39.18 39.36 39.19 40.35 41.71 41.57 40.06 41.33 41.30
40.69 41.74 33.15 31.95 24.55 17.47 25.29 27.92 31.29 37.04 39.38 40.42 40.18 40.36 41.41 40.76 39.50 38.07 37.09 36.13 35.55 35.50 35.61 35.95 36.37 34.54 35.01 35.65 34.23 33.97 33.71 33.91 33.71 33.60 32.90 33.49 34.18 34.95 35.73 36.49 36.95 36.54 37.38 37.06 37.38 38.26 37.61 38.24 38.86
37.58 35.53 36.85 36.10 32.55 25.60 23.22 26.46 36.74 37.54 41.10 40.80 40.36 41.57 40.96 39.36 38.11 37.08 36.08 35.09 34.55 34.39 34.06 33.69 34.27 33.04 32.84 33.65 32.40 31.95 31.84 31.97 31.94 31.29 31.39 31.83 32.65 33.02 33.47 34.22 34.50 34.86 34.26 34.27 34.22 34.94 34.94 35.30 35.80
40.63 37.49 37.39 30.68 27.68 30.55 29.58 29.09 40.42 40.28 39.74 42.05 41.06 41.79 41.09 39.81 38.46 36.94 35.56 33.84 33.07 32.87 32.50 32.09 32.62 31.20 31.46 31.76 30.86 30.61 30.65 30.39 29.46 29.23 29.80 30.56 30.17 31.16 31.64 32.36 32.52 32.70 31.86 32.52 32.33 32.17 32.75 32.98 33.60

GFSSGP_sfc_wetblb_165.txt.gz
Wetbulb
66.36 63.98 60.57 57.50 50.01 47.16 42.88 45.75 48.95 49.47 49.64 52.47 54.81 53.84 52.62 53.45 54.84 51.67 63.80 67.97 68.82 69.32 70.49 70.89 71.48 71.79 70.78 69.85 69.61 69.16 70.31 69.91 70.18 69.75 69.04 68.38 67.38 66.98 66.28 66.18 66.94 65.83 66.94 67.16 67.46 67.79 68.32 67.07 66.53
64.86 63.99 57.91 53.96 47.27 41.80 42.22 46.63 48.48 49.95 52.62 54.07 55.01 53.49 52.34 51.72 60.60 61.91 62.45 68.26 69.24 69.38 70.15 70.16 70.45 71.28 70.56 69.33 68.87 69.09 70.07 70.02 69.01 68.80 68.20 67.81 66.94 66.21 65.88 65.40 67.22 66.53 66.60 66.74 66.92 66.87 67.98 67.73 66.40
64.06 63.21 53.10 50.18 45.99 42.73 43.14 47.32 49.39 51.91 54.24 53.73 52.37 54.79 53.81 54.70 60.54 62.38 65.05 68.54 69.21 68.65 69.56 69.56 69.98 70.85 70.00 69.01 68.48 69.01 69.60 69.52 68.08 68.79 68.25 67.40 66.89 66.04 65.61 65.12 64.79 65.35 65.42 65.11 65.88 66.13 66.69 67.62 66.02
59.35 57.01 53.85 47.49 45.44 47.35 47.97 49.36 51.68 52.06 53.23 55.21 54.61 53.84 57.52 59.92 60.89 64.43 66.62 68.15 68.68 68.81 69.63 69.30 70.34 70.65 69.38 68.62 68.40 68.10 68.10 68.23 68.06 69.15 68.34 67.26 67.02 66.29 67.12 65.99 64.43 64.33 63.98 64.27 64.58 65.20 65.24 66.77 65.83
57.85 54.04 47.71 45.54 46.51 48.77 50.01 52.16 52.46 51.54 51.54 52.70 55.27 53.28 55.55 60.82 64.68 65.59 65.83 68.30 68.23 67.75 68.88 68.98 69.51 69.93 69.50 68.31 68.02 67.77 67.70 67.24 67.64 69.24 68.36 67.73 67.39 66.94 67.13 66.65 64.83 63.81 63.38 62.84 63.54 64.27 63.97 64.70 65.78
53.33 51.89 45.19 42.47 45.91 50.04 51.20 52.98 52.18 51.89 52.64 53.31 54.16 54.48 55.78 61.62 63.30 64.46 65.62 66.91 68.16 67.46 68.34 68.46 66.99 67.82 68.30 68.27 68.45 68.49 68.07 68.18 67.95 68.22 68.35 68.38 67.95 67.51 66.97 66.03 65.10 64.23 63.61 63.52 63.56 63.18 63.05 63.38 63.56
50.60 48.26 46.67 46.67 46.34 48.05 51.29 54.22 51.25 50.84 51.71 52.80 55.24 52.53 56.56 60.14 63.11 64.68 64.71 65.62 67.19 67.82 68.20 68.10 67.61 66.89 65.59 66.51 66.49 67.01 67.77 67.63 67.54 67.57 67.37 68.12 68.23 67.95 67.37 66.95 66.65 64.72 64.15 64.12 63.97 63.26 62.42 62.43 62.98
51.53 49.24 45.73 45.53 46.64 46.19 51.79 52.11 52.80 53.74 51.72 56.24 56.40 52.49 53.46 59.86 63.81 64.25 64.36 64.62 65.53 66.15 67.25 67.03 66.67 66.41 65.96 65.61 64.37 64.82 65.54 66.08 66.20 65.60 64.74 64.95 66.04 66.18 66.07 64.91 66.01 66.15 65.36 65.34 64.81 64.32 63.16 62.21 62.26
52.26 46.18 43.70 45.83 47.51 47.25 51.64 50.16 53.28 54.37 54.03 55.52 56.85 56.60 59.31 62.79 63.63 62.38 61.85 63.23 63.85 64.87 65.10 65.90 65.77 65.75 65.39 64.95 64.14 62.95 63.68 63.80 63.78 63.18 62.46 62.05 64.36 64.55 63.91 62.96 64.29 66.05 66.18 66.57 66.19 65.70 64.63 63.34 62.28
47.89 43.33 46.70 48.99 47.32 48.71 50.93 50.92 51.70 51.52 52.09 52.89 55.53 58.93 61.31 62.42 61.52 60.87 60.59 61.01 61.86 62.26 63.63 64.80 64.76 64.99 64.99 66.13 64.73 63.12 63.80 62.97 62.61 62.48 61.41 61.54 61.63 63.86 64.35 61.06 61.46 63.47 64.08 65.68 66.46 66.11 64.42 61.80 59.50
47.44 43.46 49.13 49.29 51.56 50.88 50.54 49.73 50.95 48.91 48.38 52.57 54.43 56.91 59.79 60.35 60.52 60.71 60.61 60.96 62.02 63.06 63.81 64.57 64.75 64.88 64.09 63.78 62.90 62.81 62.33 61.93 62.03 61.88 61.19 61.39 61.16 59.77 62.77 60.60 60.24 59.36 59.13 60.06 61.65 62.45 62.39 60.69 59.46
45.06 48.71 49.54 51.49 50.96 50.60 49.06 50.48 48.62 49.10 49.41 53.91 56.27 57.37 58.21 59.15 59.59 59.94 60.26 60.48 60.94 62.32 64.05 64.72 64.98 64.52 64.65 64.05 63.05 62.92 62.61 61.68 61.24 61.93 61.78 60.90 59.96 58.82 58.72 58.74 58.78 58.47 58.81 57.97 58.14 58.73 60.57 60.38 59.97
47.21 48.55 50.65 51.13 50.78 49.01 51.23 48.28 48.12 48.32 50.99 53.00 53.93 54.34 54.03 54.52 56.19 57.78 58.62 59.32 60.69 60.94 62.51 64.15 64.80 64.68 64.65 64.13 64.26 63.13 62.91 62.48 62.32 62.14 62.41 62.26 60.62 59.76 59.28 59.02 58.87 58.79 59.10 58.64 58.11 58.31 59.73 60.10 60.10
48.87 49.43 49.31 50.38 50.30 50.03 48.84 47.79 48.75 50.32 53.07 52.23 52.32 51.92 52.33 52.90 54.69 54.67 56.49 57.63 59.01 60.41 60.64 62.26 64.38 64.99 64.77 64.11 63.78 64.40 63.34 62.79 62.81 62.39 62.72 62.50 61.83 60.52 60.00 59.19 58.93 58.51 58.61 59.13 58.47 58.23 58.53 58.79 58.94
49.71 45.43 47.45 47.23 49.29 48.48 49.76 45.97 47.01 50.51 51.29 51.44 51.07 51.27 52.39 52.74 53.70 53.70 54.65 55.45 57.69 59.18 60.52 60.42 61.19 64.67 64.46 64.28 63.84 64.00 64.61 64.61 62.72 63.26 62.93 62.96 62.75 61.22 60.64 59.80 59.37 59.05 58.66 58.19 57.73 57.47 57.28 56.87 57.41
45.81 43.91 39.01 45.87 48.65 48.98 48.56 39.45 47.85 50.86 49.34 49.17 49.94 49.40 50.49 52.02 53.16 53.84 54.97 55.03 55.35 54.83 55.26 55.70 57.41 58.73 61.73 63.49 63.96 64.16 63.83 64.05 64.05 63.38 63.64 63.37 62.89 62.44 61.60 60.29 59.64 59.93 59.18 58.38 57.59 57.23 56.70 56.15 55.83
41.98 36.41 38.81 41.92 47.44 47.53 46.01 40.77 47.40 49.01 47.47 47.05 47.97 48.92 49.91 50.01 51.23 52.95 54.17 53.23 51.96 52.24 52.19 52.40 53.31 53.68 54.73 57.52 61.81 63.83 64.01 63.71 63.55 63.73 63.64 64.44 64.80 64.30 63.63 63.01 62.52 61.89 61.40 60.76 60.23 59.04 57.66 56.23 55.94
37.27 38.42 39.57 38.25 42.49 43.97 43.83 42.64 46.19 48.72 46.70 46.60 46.87 47.40 48.00 49.02 50.35 52.09 51.02 51.19 50.51 50.24 50.76 51.41 52.53 52.71 53.06 53.21 56.19 60.08 62.85 63.35 63.37 63.01 63.49 63.86 64.85 64.69 63.73 63.33 62.67 62.59 61.64 60.96 60.59 60.13 59.74 58.97 58.21
40.78 38.07 37.28 39.10 44.39 43.46 41.78 41.82 43.98 46.00 44.71 44.20 45.56 46.63 48.38 49.33 50.63 49.80 49.65 48.95 49.14 49.31 49.88 50.51 51.00 52.27 53.08 51.56 52.13 57.07 58.49 60.52 62.15 63.39 64.04 64.53 64.28 64.44 63.90 63.61 63.28 62.97 62.16 61.60 61.07 60.29 59.44 59.40 59.89
42.35 39.54 37.65 41.20 43.66 42.07 40.76 40.34 43.09 44.27 44.67 45.03 44.29 45.34 46.25 46.11 47.98 47.71 47.53 46.96 47.04 47.30 48.27 49.58 51.33 52.08 53.97 53.45 52.49 55.47 58.52 60.23 61.43 62.84 63.90 64.04 63.90 64.01 63.72 63.44 63.19 62.88 62.42 61.49 61.01 60.56 59.78 59.68 60.04
39.86 39.19 37.99 38.22 41.43 41.00 39.57 37.47 40.91 44.69 46.55 47.67 48.23 47.30 46.43 47.18 47.74 45.49 45.38 44.63 44.72 45.45 46.27 48.60 49.17 49.09 50.15 51.43 55.22 55.39 57.69 58.88 60.48 62.70 62.62 63.09 63.38 63.35 63.12 63.13 63.08 62.74 62.31 61.56 61.28 60.83 59.98 58.93 58.83
35.23 40.99 41.15 39.76 36.46 31.08 38.23 28.36 35.38 39.60 41.45 43.71 46.64 47.98 46.77 47.43 46.78 45.67 44.19 42.92 43.32 43.69 44.87 46.14 46.61 46.29 47.84 49.31 51.31 54.30 55.71 56.25 58.47 59.78 55.69 52.51 52.92 53.13 54.36 55.86 59.05 61.56 61.87 61.20 61.04 60.93 60.15 59.30 57.78
37.92 42.58 41.33 40.14 36.18 34.38 34.87 31.21 33.41 38.43 36.92 39.52 43.46 44.80 47.13 45.90 44.93 43.39 42.66 43.25 42.72 42.78 42.18 42.92 43.85 43.79 44.31 46.19 47.63 49.60 52.02 53.05 53.26 53.53 50.97 50.01 48.13 47.45 48.70 50.14 51.27 52.22 53.49 53.19 53.32 57.66 59.26 59.50 58.69
44.73 42.17 40.82 39.29 38.77 31.00 33.96 32.78 30.62 36.26 39.31 39.03 41.40 42.38 43.38 42.77 42.22 42.00 42.17 41.94 40.62 40.38 40.39 40.39 40.65 40.88 41.68 41.41 43.11 43.85 45.22 46.90 46.30 45.94 46.00 44.96 44.59 44.04 44.45 46.15 46.44 46.49 46.70 47.12 50.90 52.34 51.28 52.20 51.26
41.62 36.90 25.63 28.50 28.42 25.53 32.59 32.16 35.02 37.39 40.11 40.66 40.95 41.65 41.71 41.99 40.87 40.45 39.44 38.64 38.67 38.50 38.59 39.78 38.31 38.02 38.62 38.04 38.76 41.34 41.45 41.17 41.51 41.47 41.14 40.83 40.56 40.10 40.79 42.62 42.37 42.34 43.08 44.58 46.53 45.97 45.38 44.67 43.70
37.84 37.44 28.82 21.31 23.02 25.08 31.38 27.01 31.79 40.44 43.29 42.79 42.57 41.72 41.54 41.17 40.83 39.35 38.73 38.04 38.00 38.11 37.17 36.74 36.02 36.10 36.70 35.49 35.12 36.62 38.20 38.17 37.74 38.00 37.86 37.22 37.69 37.46 38.46 38.90 38.64 38.47 39.74 40.89 40.07 40.51 41.69 41.34 40.57
36.31 34.25 38.32 30.10 25.32 25.10 28.33 31.11 37.20 40.23 39.41 39.41 40.43 40.43 40.04 40.37 40.00 38.87 38.09 37.47 36.74 35.54 35.46 35.71 34.81 35.26 35.40 34.03 33.47 33.05 33.49 33.45 32.87 33.35 33.93 33.76 34.29 36.54 36.04 36.45 35.82 36.29 36.33 37.36 37.51 37.07 37.88 38.17 38.05
38.46 40.15 32.07 31.19 22.79 14.45 22.80 25.95 29.75 34.16 37.49 38.83 38.86 39.42 39.32 39.76 38.53 37.58 36.07 34.91 34.40 34.46 34.39 34.57 33.55 33.20 33.13 32.36 32.27 31.95 31.63 31.79 31.67 31.72 31.31 31.63 32.34 33.29 33.76 33.84 34.47 33.91 34.10 34.72 35.17 34.78 35.93 35.62 36.25
37.25 35.41 36.31 35.16 30.41 23.67 20.78 23.76 34.05 37.61 38.12 39.67 40.19 40.10 39.83 38.90 37.80 36.37 34.85 33.51 33.21 32.92 32.72 32.94 31.72 31.51 31.62 31.10 30.73 30.43 30.08 29.90 29.95 29.64 29.88 30.36 30.91 31.48 32.12 32.64 32.25 32.26 32.36 33.32 33.76 33.64 34.40 34.69 34.87
40.46 37.30 37.27 30.55 24.54 28.74 27.45 28.12 37.52 38.09 38.01 40.86 40.39 40.46 39.74 38.71 36.68 35.53 33.74 32.21 31.52 31.44 31.16 31.36 30.30 29.98 30.09 29.94 29.26 29.09 28.87 28.44 27.66 27.62 28.02 29.11 29.20 30.33 30.67 31.39 30.87 30.92 31.42 31.86 31.92 32.21 33.00 32.76 32.43

GFSSGP_sfc_wetblb_168.txt.gz
Wetbulb
66.16 63.73 59.29 56.94 49.77 45.84 41.09 44.53 46.58 48.01 48.11 51.56 53.11 53.67 52.42 53.84 54.60 49.25 63.49 67.58 68.87 69.33 70.09 70.44 71.23 71.55 70.26 69.50 69.38 68.84 69.92 70.28 70.03 69.53 68.95 67.92 67.46 66.80 66.48 66.02 66.30 67.25 67.14 67.41 67.56 68.30 67.58 66.91 65.82
64.73 62.96 56.67 52.27 45.31 40.02 41.04 45.61 47.56 48.58 51.30 53.43 54.00 52.79 51.95 52.81 59.75 61.05 63.20 67.99 69.17 69.53 69.92 70.00 70.39 71.23 69.89 69.09 69.20 69.19 70.03 69.63 69.26 68.56 68.05 67.31 66.97 66.03 65.48 66.15 66.47 66.82 66.98 66.96 66.91 67.39 68.17 66.68 65.48
61.99 61.09 52.85 48.74 44.03 40.93 42.06 46.20 48.23 50.64 52.78 52.45 50.77 54.41 53.69 53.98 60.44 61.67 65.02 68.34 68.84 68.92 69.38 69.32 69.90 70.74 69.61 68.62 68.60 68.50 70.17 69.31 68.65 68.28 67.55 66.97 66.22 65.97 65.07 64.81 65.64 66.19 65.24 66.21 66.03 66.31 68.02 66.73 65.24
57.17 55.66 52.76 45.99 43.31 44.57 46.87 47.89 49.85 50.64 52.35 54.41 54.43 53.06 56.79 59.67 61.06 63.69 67.66 68.25 67.51 68.21 68.65 68.89 70.16 70.17 69.27 68.69 68.34 68.27 68.64 67.94 67.91 68.88 67.98 66.93 66.28 65.99 65.24 64.87 63.90 64.12 64.64 64.81 65.35 65.12 65.86 66.63 65.41
56.33 52.08 45.85 43.81 44.50 46.89 47.28 49.91 51.44 50.47 49.78 51.97 53.26 53.01 54.57 61.25 63.82 65.06 66.91 67.94 67.63 67.60 68.99 68.97 69.59 70.02 69.28 68.56 68.35 68.20 68.05 67.86 67.48 69.23 68.24 67.37 66.73 66.21 66.10 65.05 64.38 63.82 63.27 62.81 64.30 64.28 64.13 65.19 65.49
52.25 50.32 43.82 41.41 44.45 48.60 49.94 51.27 51.32 50.53 51.45 53.13 53.69 53.91 54.23 61.55 63.09 63.62 66.59 66.52 67.66 67.20 68.06 68.09 66.80 67.86 68.57 68.59 68.82 68.50 68.10 68.08 68.59 69.13 68.64 68.08 67.73 67.22 66.12 65.39 64.80 64.05 63.56 63.48 63.55 63.54 63.44 63.77 64.10
49.42 47.11 44.17 43.77 45.39 47.38 50.29 52.55 49.06 50.39 50.19 51.63 55.65 52.35 54.96 59.26 63.11 63.89 65.29 66.19 66.65 67.03 66.95 66.95 67.06 66.33 65.56 66.48 66.99 67.60 67.87 68.12 68.01 68.15 67.49 68.45 68.15 67.96 67.31 66.85 66.46 64.59 64.22 64.11 64.08 63.47 63.06 62.98 63.35
50.36 48.10 44.04 43.81 45.13 46.37 50.74 51.01 52.84 51.93 50.78 54.64 56.96 52.59 53.05 59.05 62.86 63.26 64.35 65.19 65.30 65.92 66.35 66.00 66.05 66.07 65.46 65.02 63.91 64.83 65.95 66.50 66.62 66.12 65.12 64.66 66.02 66.23 65.69 64.90 66.06 66.17 65.54 65.17 64.97 64.40 63.36 62.48 62.53
51.07 45.04 42.57 43.46 45.60 47.07 50.88 49.94 51.83 53.28 53.88 54.95 56.37 55.73 57.67 61.73 62.45 61.47 61.51 62.21 62.94 64.51 64.97 65.40 65.17 64.94 64.97 64.58 63.87 62.47 63.52 64.05 64.28 63.41 62.26 61.89 64.09 64.56 63.55 63.19 64.39 66.60 66.31 66.31 66.31 65.84 64.99 63.73 62.51
46.40 42.79 44.86 46.81 46.19 47.06 49.32 50.43 51.62 51.35 51.21 52.76 55.49 59.19 60.56 61.41 60.81 60.04 60.21 60.88 61.26 62.27 63.32 64.17 64.51 64.38 64.43 65.44 64.15 62.48 63.33 62.39 62.38 61.88 60.98 61.32 62.10 63.12 63.79 61.14 61.96 64.04 64.17 65.81 66.57 66.16 64.68 62.06 59.26
46.47 43.19 47.25 47.99 49.17 49.54 49.10 48.40 50.39 49.83 47.46 53.03 54.09 57.57 59.69 59.74 60.00 59.94 59.98 61.08 61.88 62.62 62.77 64.02 63.89 64.01 63.89 64.06 63.31 62.19 62.03 61.54 61.30 61.14 60.70 60.49 60.69 59.94 61.68 61.27 60.46 59.67 58.99 60.70 63.14 63.03 62.30 60.48 59.31
45.00 47.08 47.90 50.11 49.81 49.29 47.72 49.05 47.96 48.28 49.96 53.15 56.19 58.50 59.21 59.38 59.56 59.85 59.95 60.47 60.76 61.82 62.95 63.53 64.07 63.80 63.59 63.04 62.18 62.48 61.81 60.98 60.61 60.91 61.00 59.80 59.31 58.41 57.96 59.89 59.98 58.90 58.67 58.32 58.15 57.95 58.94 59.85 59.74
45.40 47.00 48.93 49.23 48.84 48.20 50.04 47.31 46.74 46.96 49.84 55.13 56.43 57.46 58.13 58.85 59.62 60.01 60.96 60.87 60.37 60.56 62.51 63.37 63.74 63.74 64.23 63.44 62.85 61.91 61.90 61.44 61.20 60.85 61.27 60.95 59.68 59.08 58.10 57.91 58.24 57.99 58.16 57.68 57.05 57.16 57.69 58.50 59.05
46.97 48.13 47.78 48.70 48.28 48.72 47.36 46.22 47.81 49.11 50.02 50.21 52.83 53.51 54.15 55.50 57.44 56.63 57.23 57.83 58.60 60.37 60.99 63.30 63.82 64.36 64.00 63.77 63.71 63.66 62.50 62.46 61.76 61.42 61.48 61.55 61.25 60.29 59.38 58.39 58.05 57.95 58.16 58.31 57.86 57.60 57.42 58.05 58.71
48.14 43.91 46.00 45.60 47.47 47.25 48.50 44.69 46.25 49.53 49.54 49.70 49.50 49.52 50.26 51.08 52.06 53.92 55.26 56.31 57.24 58.25 59.72 60.36 63.25 64.05 63.65 63.42 62.72 63.46 63.96 63.05 62.39 62.19 61.82 61.89 61.95 60.91 60.56 59.62 58.54 58.41 58.12 57.90 57.63 57.39 57.11 56.68 57.13
44.46 43.20 38.91 44.46 47.47 48.01 47.41 38.93 46.26 49.20 47.40 48.50 48.55 48.06 49.22 50.90 51.77 52.36 53.44 54.28 54.27 54.97 55.94 56.24 56.36 60.19 62.92 62.80 62.81 62.87 62.74 63.61 63.61 62.29 62.35 62.26 62.29 61.83 60.46 60.10 59.48 59.36 58.73 57.68 56.66 56.37 55.86 55.48 55.29
41.38 35.56 37.36 41.33 46.44 46.21 44.81 40.44 46.22 48.23 46.87 46.43 46.52 47.48 48.34 48.94 49.77 51.23 52.55 50.67 51.06 50.73 50.74 50.91 51.77 51.75 52.33 54.28 60.20 62.64 63.39 62.94 63.03 63.00 62.88 62.61 62.93 63.56 62.93 62.44 62.23 61.34 60.92 60.39 59.81 58.92 58.04 56.78 55.90
36.85 37.20 38.30 38.04 41.58 42.88 42.24 41.64 44.84 47.17 46.31 45.64 45.16 45.70 46.08 47.85 49.50 51.34 50.55 49.71 49.21 49.10 49.78 50.25 51.27 52.06 52.73 52.57 52.10 55.92 61.28 62.51 62.15 61.95 62.31 63.21 63.73 64.47 63.43 63.15 62.41 62.21 61.62 60.90 60.48 59.76 59.22 58.68 58.35
40.82 39.12 38.32 38.64 42.96 40.41 39.97 41.12 44.82 47.34 44.23 44.48 44.53 44.77 45.91 47.38 49.41 49.02 48.56 48.00 48.21 48.04 48.80 49.73 50.70 51.13 52.75 51.29 49.93 51.14 55.26 58.79 60.95 61.62 62.12 63.10 64.51 64.27 64.08 63.72 63.01 62.29 61.73 61.65 61.09 60.44 59.51 59.15 59.34
41.45 38.33 37.14 40.15 42.54 41.28 39.68 38.89 42.46 43.72 44.01 45.06 45.10 44.65 45.55 46.59 46.93 46.90 46.23 45.57 46.20 46.37 47.21 48.81 48.50 48.52 49.67 50.70 51.66 52.30 54.01 57.41 59.48 61.98 61.99 62.83 63.34 63.73 63.59 63.33 63.05 62.74 62.22 62.01 61.22 60.33 59.48 59.55 59.83
40.28 39.45 37.46 37.47 40.13 40.13 37.86 36.71 38.79 43.22 44.34 45.80 46.36 47.45 47.98 47.17 48.30 45.14 44.83 43.84 43.70 44.26 45.00 46.45 45.96 46.28 46.98 48.29 51.26 55.32 54.04 56.51 58.11 59.96 58.82 56.12 56.97 56.91 59.16 60.54 62.41 62.62 62.46 61.89 61.46 60.80 59.97 58.90 58.86
37.54 41.22 41.09 39.38 36.24 31.29 36.95 29.06 35.13 38.11 39.55 41.95 44.22 45.75 47.02 47.64 46.81 45.71 43.63 42.45 42.96 43.09 43.78 44.63 44.36 44.08 45.43 46.13 48.70 51.57 53.46 54.25 57.16 54.21 51.83 49.86 50.34 50.97 52.38 54.14 54.52 54.97 56.30 56.31 58.51 60.29 59.88 59.09 57.41
37.22 40.93 39.49 38.46 35.41 32.99 33.19 30.47 31.44 36.54 35.85 38.93 42.68 43.45 44.77 45.93 44.93 43.64 42.60 42.64 41.98 41.63 40.69 40.93 41.38 41.14 41.05 41.67 44.23 47.89 49.57 50.69 53.21 49.39 46.89 46.33 45.75 46.56 48.15 49.21 49.31 49.78 50.52 52.64 54.05 52.95 53.52 54.64 56.48
42.84 40.80 39.33 38.23 36.77 30.58 33.85 32.16 29.56 35.47 38.80 40.91 40.56 41.85 43.09 42.51 41.95 41.73 41.64 41.28 39.70 39.16 38.71 38.29 38.70 38.34 38.31 38.11 39.33 40.88 42.72 44.23 45.34 46.21 44.59 44.02 43.42 43.47 44.35 45.50 45.26 45.53 47.14 48.66 49.35 49.46 48.94 48.93 48.99
41.75 37.62 27.32 28.76 26.79 25.24 31.31 31.98 34.66 36.68 39.54 39.99 40.77 41.10 41.08 40.83 40.15 39.49 38.89 38.41 38.16 37.55 37.56 37.80 37.38 36.29 36.07 35.81 36.13 38.07 38.57 39.49 41.05 41.53 41.63 41.06 40.20 40.33 40.96 41.66 41.44 42.19 43.99 42.97 44.18 43.99 43.52 43.05 42.67
38.88 37.65 28.33 21.82 22.99 23.09 29.31 27.06 30.90 38.78 41.77 42.57 43.15 41.11 40.33 39.38 39.43 38.72 38.27 37.62 37.15 37.27 36.55 35.82 35.92 35.06 34.15 33.72 33.63 34.35 35.97 36.81 38.27 38.61 38.25 38.22 38.12 38.46 39.18 38.27 38.08 37.09 38.32 38.42 39.10 39.55 39.60 38.82 38.47
36.07 34.50 37.45 29.69 21.32 22.38 26.20 29.41 34.77 37.39 38.47 38.76 38.76 39.95 40.18 40.22 39.27 38.38 37.68 36.93 36.25 35.52 35.51 34.76 34.63 34.03 32.86 32.35 32.11 31.86 32.32 32.42 32.17 32.47 33.74 34.18 34.77 35.97 34.50 34.67 34.16 34.41 35.44 35.78 35.89 36.24 36.08 36.32 36.39
37.55 39.99 32.72 30.23 21.38 13.58 22.59 24.40 28.28 32.62 36.33 37.13 38.21 38.93 39.69 39.36 38.47 37.41 36.62 35.63 35.08 34.65 34.62 33.74 33.58 33.24 32.02 31.62 31.12 30.88 30.54 30.85 30.88 31.10 30.68 31.00 31.76 32.73 32.77 32.55 32.49 32.71 33.30 33.92 34.17 34.39 34.94 35.00 35.27
36.59 34.34 35.26 34.60 29.28 21.67 18.95 23.18 31.93 35.61 36.53 37.28 38.17 39.79 39.94 39.56 38.67 36.82 35.74 35.24 34.77 34.16 33.43 32.45 31.98 32.12 30.52 30.52 29.98 29.59 29.07 29.10 29.21 29.02 29.17 29.46 30.34 30.99 31.38 31.32 31.30 31.29 31.37 32.19 32.24 32.98 33.84 33.34 33.03
39.66 37.14 36.73 29.81 22.03 26.57 27.51 28.04 35.80 35.82 37.77 38.17 39.34 40.03 39.09 39.96 38.05 36.75 35.54 33.97 32.92 32.64 32.19 32.10 30.22 30.50 29.86 29.42 28.88 28.42 27.94 27.57 26.96 26.90 27.53 28.68 28.58 29.60 30.03 30.14 30.21 30.31 30.40 30.99 31.43 31.32 31.83 31.19 31.11